Pedro Bay, AK

1:43 PM AKST on February 12, 2016 (GMT -0900)
Iliamna

Weather History for PAIL - June, 2013

Change the Weather History Date:

Wednesday, June 12, 2013

  Actual Average Record
Temperature  
Mean Temperature 60 °F -  
Max Temperature 73 °F 57 °F 73 °F (2003)
Min Temperature 46 °F 43 °F 35 °F (1963)
Degree Days  
Heating Degree Days 6    
Growing Degree Days 10 (Base 50)    
Moisture  
Dew Point 45 °F    
Average Humidity 58    
Maximum Humidity 93    
Minimum Humidity 24    
Precipitation  
Precipitation 0.00 in - - ()
Sea Level Pressure  
Sea Level Pressure 30.00 in    
Wind  
Wind Speed 3 mph (ESE)    
Max Wind Speed 10 mph    
Max Gust Speed -    
Visibility 10 miles    
Events      
Averages and records for this station are not official NWS values.
T = Trace of Precipitation, MM = Missing Value Source: NWS Daily Summary

Daily Weather History Graph

Daily Weather History Graph

Search for Another Location

Airport or City:

Trip Planner

Search our weather history database for the weather conditions in past years. The results will help you decide how hot, cold, wet, or windy it might be!

Date:

Astronomy

Jun. 12, 2013 Rise Set
Actual Time 4:59 AM AKDT 11:40 PM AKDT
Civil Twilight 3:24 AM AKDT 1:16 AM AKDT
Nautical Twilight Sun does not rise Sun does not rise
Astronomical Twilight Sun does not rise Sun does not rise
Moon 9:46 AM AKDT 12:55 AM AKDT
Length of Visible Light 21h 51m
Length of Day
18h 40m
Waxing Crescent, 15% of the Moon is Illuminated
Jun 12
Waxing Crescent
Jun 16
First Quarter
Jun 23
Full
Jun 29
Last Quarter
Jul 7
New

Hourly Weather History & Observations

Time (AKDT) Temp. Dew Point Humidity Pressure Visibility Wind Dir Wind Speed Gust Speed Precip Events Conditions
12:53 AM 55.0 °F 46.9 °F 74% 30.04 in 10.0 mi Calm Calm - N/A   Clear
1:53 AM 51.1 °F 45.0 °F 80% 30.04 in 10.0 mi Calm Calm - N/A   Clear
2:53 AM 50.0 °F 45.0 °F 83% 30.04 in 10.0 mi NNE 4.6 mph - N/A   Clear
3:53 AM 46.0 °F 44.1 °F 93% 30.04 in 10.0 mi Calm Calm - N/A   Clear
4:53 AM 46.9 °F 45.0 °F 93% 30.04 in 10.0 mi North 3.5 mph - N/A   Clear
5:53 AM 48.9 °F 45.0 °F 86% 30.03 in 10.0 mi Calm Calm - N/A   Partly Cloudy
6:53 AM 52.0 °F 46.0 °F 80% 30.02 in 10.0 mi Calm Calm - N/A   Partly Cloudy
7:53 AM 55.9 °F 48.0 °F 75% 30.01 in 10.0 mi Calm Calm - N/A   Partly Cloudy
8:53 AM 59.0 °F 48.9 °F 69% 30.01 in 10.0 mi Calm Calm - N/A   Clear
9:53 AM 62.1 °F 48.0 °F 60% 30.00 in 10.0 mi Calm Calm - N/A   Partly Cloudy
10:53 AM 64.9 °F 46.0 °F 50% 30.00 in 10.0 mi East 3.5 mph - N/A   Partly Cloudy
11:53 AM 68.0 °F 46.9 °F 47% 29.99 in 10.0 mi SE 4.6 mph - N/A   Clear
12:53 PM 70.0 °F 44.1 °F 39% 29.98 in 10.0 mi Variable 5.8 mph - N/A   Clear
1:53 PM 73.0 °F 44.1 °F 35% 29.98 in 10.0 mi Variable 5.8 mph - N/A   Clear
2:53 PM 72.0 °F 44.1 °F 37% 29.97 in 10.0 mi SE 10.4 mph - N/A   Clear
3:53 PM 73.0 °F 44.1 °F 35% 29.97 in 10.0 mi SE 9.2 mph - N/A   Clear
4:53 PM 73.0 °F 42.1 °F 33% 29.97 in 10.0 mi ESE 8.1 mph - N/A   Clear
5:53 PM 69.1 °F 42.1 °F 38% 29.96 in 10.0 mi ESE 10.4 mph - N/A   Clear
6:53 PM 68.0 °F 41.0 °F 37% 29.97 in 10.0 mi SE 6.9 mph - N/A   Clear
7:53 PM 68.0 °F 41.0 °F 37% 29.97 in 10.0 mi ESE 5.8 mph - N/A   Clear
8:53 PM 63.0 °F 41.0 °F 45% 29.97 in 10.0 mi East 6.9 mph - N/A   Clear
9:53 PM 61.0 °F 44.1 °F 54% 29.97 in 10.0 mi SSE 10.4 mph - N/A   Clear
10:53 PM 59.0 °F 45.0 °F 60% 29.99 in 10.0 mi East 6.9 mph - N/A   Clear
11:53 PM 54.0 °F 43.0 °F 66% 30.00 in 10.0 mi SSE 5.8 mph - N/A   Clear